Terminal Aerodrome Forecast
Issued by NWS St Louis, MO

Home | Current Version | Previous Version | Text Only | Print | Product List | Glossary On
Versions: 1 2 3 4 5 6 7 8 9 10 11 12 13 14 15 16 17 18 19 20 21 22 23 24 25 26 27 28 29 30 31 32 33
636
FTUS43 KLSX 162329
TAFSTL
TAF
KSTL 162329Z 1700/1806 36006KT P6SM FEW250
     FM170700 10004KT P6SM SCT200
     FM171500 17008KT P6SM VCSH OVC035
     FM171800 20007KT P6SM OVC015
     FM172200 24008KT P6SM BKN040=

USA.gov is the U.S. government's official web portal to all federal, state and local government web resources and services.